AC2EV Weather Reports


Display with metric or nautical units.
time (UTC)temp
F
wind
direction
speed
MPH
gust
MPH
rain 1hr
in
rain 24hr
in
rain mn
in
humidity
%
barometer
mb
20260505034433 64 194 0.0 3.0 0.00 0.00 0.00 54 1001.6
20260505033932 65 188 0.0 8.0 0.00 0.00 0.00 54 1001.8
20260505033433 65 186 1.0 8.0 0.00 0.00 0.00 53 1001.8
20260505032931 65 212 1.0 8.0 0.00 0.00 0.00 52 1002.0
20260505032429 65 225 1.0 11.0 0.00 0.00 0.00 51 1001.9
20260505031930 65 220 1.0 11.0 0.00 0.00 0.00 50 1001.6
20260505031429 64 201 0.0 5.0 0.00 0.00 0.00 51 1002.0
20260505030929 64 208 0.0 0.0 0.00 0.00 0.00 50 1001.8
20260505030429 64 207 0.0 0.0 0.00 0.00 0.00 50 1001.6
20260505025930 63 208 0.0 0.0 0.00 0.00 0.00 50 1001.4
20260505025428 63 207 0.0 0.0 0.00 0.00 0.00 50 1001.5
20260505024922 63 207 0.0 0.0 0.00 0.00 0.00 50 1001.5
20260505024416 63 207 0.0 0.0 0.00 0.00 0.00 50 1001.4
20260505023916 63 208 0.0 0.0 0.00 0.00 0.00 50 1001.5
20260505023417 63 208 0.0 0.0 0.00 0.00 0.00 50 1001.5
20260505022916 64 208 0.0 0.0 0.00 0.00 0.00 48 1001.4
20260505022415 64 207 0.0 0.0 0.00 0.00 0.00 48 1001.5
20260505021912 64 208 0.0 0.0 0.00 0.00 0.00 48 1001.5
20260505021412 64 207 0.0 0.0 0.00 0.00 0.00 47 1001.6
20260505020912 65 211 0.0 0.0 0.00 0.00 0.00 47 1001.6
20260505020410 65 211 0.0 0.0 0.00 0.00 0.00 46 1001.8
20260505015910 65 211 0.0 1.0 0.00 0.00 0.00 46 1001.9
20260505015410 65 211 0.0 3.0 0.00 0.00 0.00 46 1001.9
20260505014909 65 217 0.0 3.0 0.00 0.00 0.00 46 1002.0
20260505014406 65 220 0.0 0.0 0.00 0.00 0.00 46 1002.1
20260505013906 65 220 0.0 0.0 0.00 0.00 0.00 45 1002.0
20260505013518 66 220 0.0 0.0 0.00 0.00 0.00 44 1002.0
20260505012904 66 220 0.0 0.0 0.00 0.00 0.00 44 1002.0
20260505012519 66 220 0.0 0.0 0.00 0.00 0.00 43 1001.9
20260505011902 67 220 0.0 0.0 0.00 0.00 0.00 43 1001.9
20260505011401 67 220 0.0 0.0 0.00 0.00 0.00 42 1001.8
20260505010901 67 220 0.0 0.0 0.00 0.00 0.00 42 1001.8
20260505010401 67 219 0.0 0.0 0.00 0.00 0.00 42 1001.8
20260505005901 67 220 0.0 0.0 0.00 0.00 0.00 41 1001.8
20260505005402 68 220 0.0 0.0 0.00 0.00 0.00 41 1001.6
20260505004903 68 220 0.0 0.0 0.00 0.00 0.00 40 1001.6
20260505004402 68 220 0.0 0.0 0.00 0.00 0.00 40 1001.5
20260505003902 69 219 0.0 0.0 0.00 0.00 0.00 39 1001.6
20260505003402 69 219 0.0 0.0 0.00 0.00 0.00 39 1001.5
20260505002902 69 221 0.0 0.0 0.00 0.00 0.00 38 1001.6
20260505002518 69 221 0.0 0.0 0.00 0.00 0.00 37 1001.6
20260505001902 70 230 0.0 1.0 0.00 0.00 0.00 37 1001.6
20260505001401 70 229 0.0 4.0 0.00 0.00 0.00 37 1001.6
20260505000902 70 230 0.0 4.0 0.00 0.00 0.00 36 1001.6
20260505000402 71 234 0.0 0.0 0.00 0.00 0.00 37 1001.8
20260504235901 71 234 0.0 1.0 0.00 0.00 0.00 36 1001.6
20260504235516 71 236 0.0 1.0 0.00 0.01 0.00 35 1001.6
20260504234900 71 229 0.0 0.0 0.00 0.01 0.00 35 1001.6
20260504234517 71 226 0.0 0.0 0.00 0.01 0.00 36 1001.6
20260504233901 72 235 0.0 0.0 0.00 0.01 0.00 35 1001.6
20260504233402 72 242 0.0 0.0 0.00 0.01 0.00 35 1001.6
20260504232901 72 242 0.0 0.0 0.00 0.01 0.00 35 1001.6
20260504232402 72 242 0.0 0.0 0.00 0.01 0.00 34 1001.6
20260504231901 72 252 0.0 7.0 0.00 0.01 0.00 34 1001.6
20260504231401 73 259 1.0 10.0 0.00 0.01 0.00 34 1001.6
20260504230901 73 227 1.0 13.0 0.00 0.01 0.00 33 1001.6
20260504230516 73 235 0.0 13.0 0.00 0.01 0.00 34 1001.6
20260504225900 73 221 1.0 11.0 0.00 0.01 0.00 32 1001.5
20260504225517 73 231 1.0 11.0 0.00 0.01 0.00 32 1001.5
20260504224901 73 233 0.0 3.0 0.00 0.01 0.00 33 1001.5
20260504224402 73 243 1.0 10.0 0.00 0.01 0.00 32 1001.4
20260504223901 74 243 1.0 10.0 0.00 0.01 0.00 32 1001.4
20260504223402 74 275 0.0 7.0 0.00 0.01 0.00 31 1001.4
20260504222901 74 239 1.0 11.0 0.00 0.01 0.00 32 1001.4
20260504222402 75 232 1.0 11.0 0.00 0.01 0.00 31 1001.4
20260504221901 75 219 0.0 10.0 0.00 0.01 0.00 32 1001.3
20260504221401 75 223 1.0 7.0 0.00 0.01 0.00 31 1001.3
20260504220901 75 269 0.0 7.0 0.00 0.01 0.00 31 1001.3
20260504220516 75 229 0.0 7.0 0.00 0.01 0.00 31 1001.3
20260504215901 75 213 0.0 6.0 0.00 0.01 0.00 31 1001.4
20260504215402 75 217 1.0 7.0 0.00 0.01 0.00 31 1001.4
20260504214901 75 244 3.0 17.0 0.00 0.01 0.00 31 1001.4
20260504214402 75 246 3.0 17.0 0.00 0.01 0.00 31 1001.5
20260504213901 75 196 2.0 12.0 0.00 0.01 0.00 31 1001.5
20260504213514 75 204 2.0 14.0 0.00 0.01 0.00 30 1001.5
20260504212901 75 216 3.0 18.0 0.00 0.01 0.00 31 1001.5
20260504212402 75 242 4.0 18.0 0.00 0.01 0.00 31 1001.4
20260504211901 75 276 4.0 19.0 0.00 0.01 0.00 31 1001.6
20260504211401 76 0 3.0 19.0 0.00 0.01 0.00 31 1001.6
20260504210901 76 219 3.0 15.0 0.00 0.01 0.00 31 1001.5
20260504210401 75 213 5.0 18.0 0.00 0.01 0.00 32 1001.6
20260504205901 75 218 5.0 18.0 0.00 0.01 0.00 31 1001.6
20260504205402 76 231 2.0 17.0 0.00 0.01 0.00 31 1001.8
20260504204901 76 222 2.0 13.0 0.00 0.01 0.00 32 1001.8
20260504204401 76 222 2.0 21.0 0.00 0.01 0.00 31 1001.9
20260504203901 76 228 2.0 21.0 0.00 0.01 0.00 31 1001.9
20260504203401 76 246 3.0 16.0 0.00 0.01 0.00 34 1001.9
20260504202901 75 240 5.0 21.0 0.00 0.01 0.00 34 1002.0
20260504202402 75 171 4.0 21.0 0.00 0.01 0.00 33 1002.0
20260504201901 75 235 3.0 20.0 0.00 0.01 0.00 35 1002.0
20260504201403 75 269 7.0 27.0 0.00 0.01 0.00 34 1002.1
20260504200901 74 254 7.0 27.0 0.00 0.01 0.00 34 1002.1
20260504200436 75 205 4.0 22.0 0.00 0.01 0.00 34 1002.2
20260504195956 75 219 4.0 22.0 0.00 0.01 0.00 35 1002.3
20260504195514 75 227 3.0 17.0 0.00 0.01 0.00 34 1002.4
20260504194902 74 233 5.0 19.0 0.00 0.01 0.00 34 1002.3
20260504194403 74 259 4.0 19.0 0.00 0.01 0.00 34 1002.6
20260504193902 74 217 2.0 18.0 0.00 0.01 0.00 37 1002.7
20260504193403 74 200 4.0 20.0 0.00 0.01 0.00 36 1002.7
20260504192517 74 218 3.0 14.0 0.00 0.01 0.00 36 1002.8
20260504191902 74 233 4.0 16.0 0.00 0.01 0.00 38 1003.0
20260504191402 73 225 4.0 16.0 0.00 0.01 0.00 37 1003.0
20260504190902 73 250 5.0 19.0 0.00 0.01 0.00 36 1003.1
20260504190402 72 227 6.0 23.0 0.00 0.01 0.00 37 1003.2
20260504185901 72 236 8.0 25.0 0.00 0.01 0.00 37 1003.5
20260504185403 72 227 11.0 27.0 0.00 0.01 0.00 36 1003.4
20260504184901 72 0 9.0 27.0 0.00 0.01 0.00 37 1003.4
20260504184516 72 202 6.0 21.0 0.00 0.01 0.00 38 1003.4
20260504183901 72 220 5.0 20.0 0.00 0.01 0.00 41 1003.3
20260504183403 72 215 5.0 20.0 0.00 0.01 0.00 40 1003.4
20260504182901 72 269 7.0 27.0 0.00 0.01 0.00 40 1003.6
20260504182402 71 231 9.0 27.0 0.00 0.01 0.00 40 1003.6
20260504181901 71 211 7.0 22.0 0.00 0.01 0.00 40 1003.6
20260504181402 71 251 8.0 20.0 0.00 0.01 0.00 42 1003.7
20260504180901 71 244 5.0 20.0 0.00 0.01 0.00 41 1003.8
20260504180402 72 248 3.0 15.0 0.00 0.01 0.00 42 1003.8
20260504175902 71 0 5.0 17.0 0.00 0.01 0.00 41 1004.0
20260504175401 71 229 4.0 17.0 0.00 0.01 0.00 41 1003.8
20260504174902 71 238 2.0 14.0 0.00 0.01 0.00 44 1003.9
20260504174401 71 0 3.0 15.0 0.00 0.01 0.00 43 1003.9
20260504173901 70 219 4.0 15.0 0.00 0.01 0.00 43 1004.0
20260504173401 70 248 5.0 16.0 0.00 0.01 0.00 44 1004.0
20260504172901 70 199 5.0 20.0 0.00 0.01 0.00 42 1004.1
20260504172400 70 0 3.0 20.0 0.00 0.01 0.00 43 1004.1
20260504171901 70 240 3.0 15.0 0.00 0.01 0.00 44 1004.1
20260504171401 69 241 3.0 16.0 0.00 0.01 0.00 44 1004.1
20260504170901 69 261 3.0 16.0 0.00 0.01 0.00 44 1004.2
20260504170401 69 250 3.0 16.0 0.00 0.01 0.00 45 1004.2
20260504160401 66 202 4.0 19.0 0.00 0.01 0.00 47 1004.7
20260504150901 64 223 5.0 22.0 0.00 0.01 0.00 49 1005.1
20260504150401 64 219 4.0 22.0 0.00 0.01 0.00 47 1005.1
20260504140901 62 0 6.0 19.0 0.00 0.01 0.00 48 1005.0
20260504140401 62 207 4.0 19.0 0.00 0.01 0.00 50 1005.0
20260504130401 59 178 0.0 5.0 0.00 0.01 0.00 53 1005.7
20260504110330 52 174 0.0 3.0 0.00 0.01 0.00 59 1005.8
20260504100330 53 195 0.0 5.0 0.00 0.01 0.00 54 1005.4
20260504081802 52 189 0.0 5.0 0.00 0.01 0.00 57 1006.3
20260504080802 52 207 0.0 8.0 0.00 0.01 0.00 57 1006.4
20260504070250 53 0 1.0 15.0 0.00 0.01 0.00 56 1006.9
20260504060240 53 0 0.0 6.0 0.00 0.01 0.00 55 1007.3
20260504050736 55 234 2.0 13.0 0.00 0.01 0.00 51 1007.5
20260504050232 55 223 2.0 16.0 0.00 0.01 0.00 51 1007.6
20260504045731 55 245 1.0 16.0 0.00 0.01 0.00 51 1007.6
20260504045231 55 0 1.0 15.0 0.00 0.01 0.00 52 1007.6
20260504044732 55 229 2.0 15.0 0.00 0.01 0.00 51 1007.7
20260504044232 55 226 2.0 15.0 0.00 0.01 0.00 51 1007.7
20260504043735 55 244 3.0 15.0 0.00 0.01 0.00 51 1007.7
20260504043231 55 222 3.0 15.0 0.00 0.01 0.00 51 1007.6
20260504042731 55 229 2.0 15.0 0.00 0.01 0.00 51 1007.7
20260504042438 55 0 2.0 16.0 0.00 0.01 0.00 51 1007.7
20260504041732 55 219 2.0 16.0 0.00 0.01 0.00 51 1007.7
20260504041232 55 0 2.0 15.0 0.00 0.01 0.00 50 1007.7
20260504040731 56 0 2.0 11.0 0.00 0.01 0.00 51 1007.5
20260504040232 56 0 2.0 12.0 0.00 0.01 0.00 51 1007.6
20260504035731 56 0 2.0 14.0 0.00 0.01 0.01 50 1007.6
20260504035231 55 256 1.0 14.0 0.00 0.01 0.01 51 1007.5
20260504034731 55 227 1.0 14.0 0.00 0.01 0.01 51 1007.6